Miscellaneous Local Product
Issued by NWS North Platte, NE

Home | Current Version | Previous Version | Text Only | Print | Product List | Glossary On
Versions: 1 2 3 4 5 6 7 8 9 10 11 12 13 14 15 16 17 18 19 20 21 22 23 24 25 26 27 28 29 30 31 32 33 34 35 36 37 38 39 40 41 42 43 44 45 46 47 48 49 50
000
AXUS43 KLBF 290710
MISLBF


WESTERN AND NORTH CENTRAL NEBRASKA HOURLY WEATHER ROUNDUP
NATIONAL WEATHER SERVICE NORTH PLATTE NE
200 AM CDT SUN MAR 29 2015

***STATIONS NOT REPORTING VARIABLES SUCH AS SKY/WEATHER OR
PRESSURE ARE PROVIDED BY THE NEBRASKA DEPARTMENT OF
ROADS...RAWS...AND APRS NETWORKS...AND ARE NOT UNDER
NATIONAL WEATHER SERVICE QUALITY CONTROL***

...OBSERVATIONS IN AND NEAR THE EASTERN PANHANDLE OF NEBRASKA...

CITY           SKY/WX    TMP DP  RH WIND       PRES   REMARKS
PINE RIDGE     CLEAR     51  20  29 W7        29.91R
CHADRON        CLEAR     50  23  34 NW16      29.95R
ALLIANCE       CLEAR     52  25  35 N12       29.97R
SIDNEY         MOCLDY    54  32  43 NW18G26   29.98R
WHITECLAY        N/A     48  25  39 W9          N/A
CRESCENT LAKE    N/A     53  36  53 N10G20      N/A
BIG SPRINGS      N/A     70  26  19 NW20        N/A
$$

...OBSERVATIONS IN NORTH CENTRAL NEBRASKA...

CITY           SKY/WX    TMP DP  RH WIND       PRES   REMARKS
VALENTINE      CLEAR     54  36  50 NW14G24   29.86R
THEDFORD       PTCLDY    59  35  39 N20G32    29.87R
AINSWORTH      PTCLDY    57  38  50 NW17      29.84R
O`NEILL        MOCLDY    52  38  58 W14G21    29.83R
ORD            MOCLDY    50  36  58 VRB5      29.78R
BROKEN BOW     MOCLDY    62  41  46 SW17G26   29.78R
BROWNLEE         N/A     59  33  38 N22         N/A
SPRINGVIEW       N/A     57  39  51 W12G20      N/A
BREWSTER         N/A     54  38  54 W9          N/A
ROSE             N/A     56  40  56 SW6         N/A
NEWPORT          N/A     60  40  47 NW24        N/A
SARGENT          N/A     51  38  62 CALM        N/A
COMSTOCK         N/A     55  41  58 S7          N/A
EWING            N/A     49  38  67 SW12G20     N/A
$$

...OBSERVATIONS IN SOUTHWEST NEBRASKA AND FAR NORTHEAST COLORADO...

CITY           SKY/WX    TMP DP  RH WIND       PRES   REMARKS
WRAY           FAIR      68  27  21 NW17      29.89S
IMPERIAL         N/A     70  24  17 NW16G29   29.87R
OGALLALA       MOCLDY    59  39  47 N20       29.89R
NORTH PLATTE   CLOUDY    57  37  47 N10       29.84R
MCCOOK         LGT RAIN  65  37  35 SW8G25    29.85R
LEXINGTON      MOCLDY    60  41  50 SW25G32   29.79F
PAXTON           N/A     62  33  34 W3          N/A
SUTHERLAND       N/A     62  33  34 NE17        N/A
BRADY            N/A     57  39  51 CALM        N/A
GOTHENBURG       N/A     59  38  44 S12         N/A
CALLAWAY         N/A     60  42  52 S33         N/A
$$

...NORTH PLATTE AREA...

CITY           SKY/WX    TMP DP  RH WIND       PRES   REMARKS
AIRPORT        CLOUDY    57  37  47 N10       29.84R
DOWNTOWN         N/A     62  40  44 N12G25      N/A
$$

...SOME WEATHER OBSERVATIONS FROM AROUND THE REGION...

CITY           SKY/WX    TMP DP  RH WIND       PRES   REMARKS
DENVER         PTCLDY    56  32  40 NW10      30.03R
LARAMIE        CLEAR     45  17  32 W24       30.11R
CHEYENNE       CLEAR     53  18  25 NW22G33   30.04R
SCOTTSBLUFF    CLEAR     52  20  28 NW12      30.01R
RAPID CITY     CLEAR     54  15  21 NW33G49   29.85R
PIERRE         CLEAR     48  39  71 NW12      29.74R
WINNER         FAIR      55  39  54 NW16      29.79R
SIOUX FALLS    CLOUDY    44  31  60 S26G36    29.70F
OMAHA          PTCLDY    43  32  65 S23       29.87F
GRAND ISLAND   MOCLDY    48  37  65 S21       29.80F
KANSAS CITY    CLEAR     39  32  76 S18       29.99F WCI  30
WICHITA        CLEAR     51  40  65 S15       29.93F
HAYS           CLEAR     57  39  51 S20       29.83F
LIBERAL        CLEAR     54  36  50 S9        29.91F
GOODLAND       MOCLDY    62  33  33 W22       29.89R
$$



USA.gov is the U.S. government's official web portal to all federal, state and local government web resources and services.